Flag for U.S.A. Weather past 2 weeks in Sedona, Arizona, U.S.A.

Now
37 °F

Clear.


Feels Like: 31 °F
Forecast: 25 / 53 °F
Wind: 9 mph from Northeast

Location: Sedona Airport

Current Time: Dec 20, 2014 at 4:37:31 AM

Latest Report: Dec 20, 2014 at 4:15 AM


Visibility: 10 mi

Pressure: 30.15 "Hg

Humidity: 81%

Dew point: 32 °F

Location of SedonaLocation

Historic Weather in Sedona — Graph

°F

Sedona temperature yesterday

Maximum temperature yesterday: 50 °F (at 12:15 PM)
Minimum temperature yesterday: 34 °F (at 4:15 AM)
Average temperature yesterday: 42 °F

Past Weeks' High & Low Weather Summary

 TemperatureHumidityPressure
High64 °F (Dec 7, 1:15 PM)100% (Dec 5, 3:15 AM)30.36 "Hg (Dec 5, 3:15 AM)
Low34 °F (Dec 19, 4:15 AM)32% (Dec 12, 10:55 AM)29.96 "Hg (Dec 13, 1:15 PM)
Average47 °F66%30.15 "Hg
* Reported Dec 5 3:15 AM — Dec 20 3:15 AM, Sedona, Weather by CustomWeather, © 2014

Note: Actual official high and low records may vary slightly from our data, if they occured in-between our weather recording intervals... More about our weather records

Advertising

Sedona weather history for previous 24 hours

 ConditionsComfort  
Time TempWeatherWind HumidityBarometerVisibility
3:15 AM
Dec 20
37 °FClear.6 mph81%30.19 "Hg10 mi
2:55 AM39 °FClear.6 mph75%30.19 "Hg10 mi
2:35 AM41 °FClear.6 mph70%30.16 "Hg10 mi
2:15 AM41 °FClear.6 mph70%30.15 "Hg10 mi
1:55 AM41 °FPassing clouds.10 mph70%30.15 "Hg10 mi
1:35 AM41 °FClear.10 mph70%30.16 "Hg10 mi
1:15 AM39 °FClear.13 mph75%30.16 "Hg10 mi
12:55 AM41 °FClear.10 mph70%30.15 "Hg10 mi
12:35 AM41 °FClear.10 mph70%30.17 "Hg10 mi
12:15 AM41 °FClear.10 mph70%30.18 "Hg10 mi
11:55 PM
Dec 19
39 °FClear.10 mph75%30.19 "Hg10 mi
11:35 PM41 °FClear.12 mph70%30.18 "Hg10 mi
11:15 PM41 °FClear.10 mph70%30.19 "Hg10 mi
10:55 PM41 °FClear.9 mph70%30.19 "Hg10 mi
10:35 PM39 °FClear.12 mph75%30.19 "Hg10 mi
10:15 PM41 °FClear.12 mph70%30.19 "Hg10 mi
9:55 PM41 °FClear.12 mph70%30.18 "Hg10 mi
9:15 PM41 °FClear.12 mph70%30.19 "Hg10 mi
8:55 PM41 °FClear.10 mph70%30.19 "Hg10 mi
8:35 PM43 °FClear.7 mph66%30.20 "Hg10 mi
7:55 PM43 °FClear.7 mph66%30.19 "Hg10 mi
7:15 PM43 °FClear.6 mph66%30.20 "Hg10 mi
6:55 PM45 °FClear.7 mph61%30.19 "Hg10 mi
6:35 PM45 °FClear.No wind61%30.19 "Hg10 mi
6:15 PM45 °FClear.No wind61%30.19 "Hg10 mi
5:55 PM46 °FClear.No wind57%30.18 "Hg10 mi
5:15 PM46 °FSunny.3 mph57%30.17 "Hg10 mi
4:55 PM48 °FSunny.No wind54%30.16 "Hg10 mi
4:35 PM50 °FSunny.No wind50%30.17 "Hg10 mi
4:15 PM50 °FSunny.No wind50%30.17 "Hg10 mi
3:55 PM50 °FSunny.No wind50%30.17 "Hg10 mi
3:35 PM50 °FSunny.3 mph50%30.18 "Hg10 mi
3:15 PM50 °FSunny.No wind50%30.18 "Hg10 mi
2:55 PM50 °FSunny.3 mph50%30.18 "Hg10 mi
2:15 PM50 °FSunny.No wind50%30.16 "Hg10 mi
1:55 PM50 °FSunny.3 mph50%30.17 "Hg10 mi
1:35 PM50 °FSunny.6 mph50%30.18 "Hg10 mi
1:15 PM50 °FSunny.5 mph50%30.19 "Hg10 mi
12:55 PM50 °FSunny.5 mph50%30.19 "Hg10 mi
12:35 PM50 °FSunny.5 mph50%30.20 "Hg10 mi
12:15 PM50 °FSunny.No wind50%30.21 "Hg10 mi
11:55 AM48 °FSunny.3 mph54%30.23 "Hg10 mi
11:35 AM48 °FSunny.5 mph54%30.23 "Hg10 mi
11:15 AM46 °FSunny.6 mph57%30.25 "Hg10 mi
10:55 AM46 °FSunny.5 mph57%30.26 "Hg10 mi
10:15 AM41 °FSunny.No wind61%30.27 "Hg10 mi
9:55 AM41 °FSunny.No wind61%30.27 "Hg10 mi
9:35 AM41 °FSunny.6 mph61%30.26 "Hg10 mi
9:15 AM39 °FSunny.9 mph65%30.25 "Hg10 mi
8:55 AM37 °FSunny.9 mph70%30.25 "Hg10 mi
8:35 AM37 °FSunny.12 mph70%30.25 "Hg10 mi
8:15 AM36 °FSunny.12 mph70%30.24 "Hg10 mi
7:55 AM34 °FSunny.13 mph75%30.24 "Hg10 mi
7:35 AM34 °FSunny.8 mph75%30.24 "Hg10 mi
7:15 AM36 °FClear.10 mph70%30.23 "Hg10 mi
6:55 AM34 °FClear.13 mph75%30.22 "Hg10 mi
6:15 AM34 °FClear.14 mph75%30.22 "Hg10 mi
5:55 AM34 °FClear.13 mph75%30.22 "Hg10 mi
5:15 AM36 °FClear.14 mph75%30.21 "Hg10 mi
4:55 AM36 °FClear.8 mph75%30.21 "Hg10 mi
4:35 AM36 °FClear.12 mph75%30.21 "Hg10 mi
4:15 AM34 °FClear.13 mph81%30.20 "Hg10 mi
Weather by CustomWeather, © 2014

See weather overviewHow to use our weather pages